contact:dominique.lefevre@mio.osupytheas.fr, maurice.libes@osupytheas.fr, didier.mallarino@osupytheas.fr
Project:EMSO http://www.emso-fr.org/EMSO-France
Depth: 2436.0 m
Title:EMSO Ligure Ouest : Data MII capteur MICROCAT
DateTime_Computer,Latitude,Longitude,Temperature,Conductivity,Pressure,DateTime_Instrument
DateTime_Computer,Latitude,Longitude,degC,S m-1,dbar,DateTime_Instrument
2022-09-27T00:01:04Z,42.805,6.029,13.3061,4.60087,2470.474,2022-9-27T02:02:57Z
2022-09-27T00:04:07Z,42.805,6.029,13.3069,4.60099,2470.52,2022-9-27T02:06:00Z
2022-09-27T00:07:10Z,42.805,6.029,13.3070,4.60096,2470.483,2022-9-27T02:09:03Z
2022-09-27T00:10:13Z,42.805,6.029,13.3067,4.60091,2470.483,2022-9-27T02:12:07Z
2022-09-27T00:13:16Z,42.805,6.029,13.3059,4.60093,2470.52,2022-9-27T02:15:10Z
2022-09-27T00:16:19Z,42.805,6.029,13.3060,4.60112,2470.474,2022-9-27T02:18:13Z
2022-09-27T00:19:23Z,42.805,6.029,13.3043,4.60075,2470.497,2022-9-27T02:21:16Z
2022-09-27T00:22:26Z,42.805,6.029,13.3085,4.60081,2470.474,2022-9-27T02:24:19Z
2022-09-27T00:25:29Z,42.805,6.029,13.3067,4.60102,2470.45,2022-9-27T02:27:22Z
2022-09-27T00:28:32Z,42.805,6.029,13.3067,4.60091,2470.483,2022-9-27T02:30:25Z
2022-09-27T00:31:35Z,42.805,6.029,13.3078,4.60095,2470.483,2022-9-27T02:33:28Z
2022-09-27T00:34:38Z,42.805,6.029,13.3080,4.60102,2470.483,2022-9-27T02:36:32Z
2022-09-27T00:37:41Z,42.805,6.029,13.3079,4.60086,2470.483,2022-9-27T02:39:35Z
2022-09-27T00:40:44Z,42.805,6.029,13.3091,4.60089,2470.497,2022-9-27T02:42:38Z
2022-09-27T00:43:48Z,42.805,6.029,13.3090,4.60097,2470.474,2022-9-27T02:45:41Z
2022-09-27T00:46:51Z,42.805,6.029,13.3085,4.60107,2470.483,2022-9-27T02:48:44Z
2022-09-27T00:49:54Z,42.805,6.029,13.3085,4.60119,2470.507,2022-9-27T02:51:47Z
2022-09-27T00:52:57Z,42.805,6.029,13.3079,4.60103,2470.46,2022-9-27T02:54:50Z
2022-09-27T00:56:00Z,42.805,6.029,13.3084,4.60101,2470.497,2022-9-27T02:57:53Z
2022-09-27T00:59:03Z,42.805,6.029,13.3077,4.60104,2470.488,2022-9-27T03:00:57Z
2022-09-27T01:02:06Z,42.805,6.029,13.3073,4.60084,2470.45,2022-9-27T03:04:00Z
2022-09-27T01:05:09Z,42.805,6.029,13.3085,4.60082,2470.474,2022-9-27T03:07:03Z
2022-09-27T01:08:12Z,42.805,6.029,13.3085,4.60100,2470.437,2022-9-27T03:10:06Z
2022-09-27T01:11:16Z,42.805,6.029,13.3083,4.60137,2470.45,2022-9-27T03:13:09Z
2022-09-27T01:14:19Z,42.805,6.029,13.3078,4.60104,2470.474,2022-9-27T03:16:12Z
2022-09-27T01:17:22Z,42.805,6.029,13.3085,4.60104,2470.437,2022-9-27T03:19:15Z
2022-09-27T01:20:25Z,42.805,6.029,13.3085,4.60097,2470.413,2022-9-27T03:22:18Z
2022-09-27T01:23:28Z,42.805,6.029,13.3082,4.60106,2470.45,2022-9-27T03:25:22Z
2022-09-27T01:26:31Z,42.805,6.029,13.3074,4.60111,2470.474,2022-9-27T03:28:25Z
2022-09-27T01:29:34Z,42.805,6.029,13.3096,4.60086,2470.45,2022-9-27T03:31:28Z
2022-09-27T01:32:37Z,42.805,6.029,13.3093,4.60088,2470.427,2022-9-27T03:34:31Z
2022-09-27T01:35:41Z,42.805,6.029,13.3082,4.60155,2470.437,2022-9-27T03:37:34Z
2022-09-27T01:38:44Z,42.805,6.029,13.3097,4.60092,2470.437,2022-9-27T03:40:37Z
2022-09-27T01:41:47Z,42.805,6.029,13.3091,4.60092,2470.437,2022-9-27T03:43:40Z
2022-09-27T01:44:50Z,42.805,6.029,13.3082,4.60094,2470.45,2022-9-27T03:46:43Z
2022-09-27T01:47:53Z,42.805,6.029,13.3089,4.60093,2470.45,2022-9-27T03:49:47Z
2022-09-27T01:50:56Z,42.805,6.029,13.3092,4.60109,2470.404,2022-9-27T03:52:50Z
2022-09-27T01:53:59Z,42.805,6.029,13.3089,4.60099,2470.437,2022-9-27T03:55:53Z
2022-09-27T01:57:02Z,42.805,6.029,13.3070,4.60102,2470.474,2022-9-27T03:58:56Z
2022-09-27T02:00:06Z,42.805,6.029,13.3066,4.60097,2470.413,2022-9-27T04:01:59Z
2022-09-27T02:03:09Z,42.805,6.029,13.3098,4.60113,2470.45,2022-9-27T04:05:02Z
2022-09-27T02:06:12Z,42.805,6.029,13.3102,4.60086,2470.437,2022-9-27T04:08:05Z
2022-09-27T02:09:15Z,42.805,6.029,13.3098,4.60092,2470.427,2022-9-27T04:11:08Z
2022-09-27T02:12:18Z,42.805,6.029,13.3083,4.60080,2470.427,2022-9-27T04:14:11Z
2022-09-27T02:15:21Z,42.805,6.029,13.3085,4.60087,2470.437,2022-9-27T04:17:15Z
2022-09-27T02:18:24Z,42.805,6.029,13.3091,4.60081,2470.404,2022-9-27T04:20:18Z
2022-09-27T02:21:27Z,42.805,6.029,13.3088,4.60101,2470.39,2022-9-27T04:23:21Z
2022-09-27T02:24:31Z,42.805,6.029,13.3089,4.60085,2470.45,2022-9-27T04:26:24Z
2022-09-27T02:27:34Z,42.805,6.029,13.3059,4.60086,2470.45,2022-9-27T04:29:27Z
2022-09-27T02:30:37Z,42.805,6.029,13.3058,4.60110,2470.427,2022-9-27T04:32:30Z
2022-09-27T02:33:40Z,42.805,6.029,13.3061,4.60084,2470.427,2022-9-27T04:35:33Z
2022-09-27T02:36:43Z,42.805,6.029,13.3070,4.60082,2470.427,2022-9-27T04:38:36Z
2022-09-27T02:39:46Z,42.805,6.029,13.3069,4.60093,2470.45,2022-9-27T04:41:40Z
2022-09-27T02:42:49Z,42.805,6.029,13.3065,4.60087,2470.45,2022-9-27T04:44:43Z
2022-09-27T02:45:52Z,42.805,6.029,13.3049,4.60085,2470.427,2022-9-27T04:47:46Z
2022-09-27T02:48:56Z,42.805,6.029,13.3054,4.60084,2470.437,2022-9-27T04:50:49Z
2022-09-27T02:51:59Z,42.805,6.029,13.3063,4.60103,2470.437,2022-9-27T04:53:52Z
2022-09-27T02:55:02Z,42.805,6.029,13.3054,4.60099,2470.45,2022-9-27T04:56:55Z
2022-09-27T02:58:05Z,42.805,6.029,13.3119,4.60105,2470.474,2022-9-27T04:59:58Z
2022-09-27T03:01:08Z,42.805,6.029,13.3005,4.60116,2470.413,2022-9-27T05:03:01Z
2022-09-27T03:04:11Z,42.805,6.029,13.3009,4.60090,2470.45,2022-9-27T05:06:05Z
2022-09-27T03:07:14Z,42.805,6.029,13.3013,4.60116,2470.46,2022-9-27T05:09:08Z
2022-09-27T03:10:17Z,42.805,6.029,13.3014,4.60148,2470.46,2022-9-27T05:12:11Z
2022-09-27T03:13:20Z,42.805,6.029,13.3038,4.60129,2470.437,2022-9-27T05:15:14Z
2022-09-27T03:16:24Z,42.805,6.029,13.3080,4.60099,2470.474,2022-9-27T05:18:17Z
2022-09-27T03:19:27Z,42.805,6.029,13.3059,4.60092,2470.474,2022-9-27T05:21:20Z
2022-09-27T03:22:30Z,42.805,6.029,13.3052,4.60120,2470.45,2022-9-27T05:24:23Z
2022-09-27T03:25:33Z,42.805,6.029,13.3054,4.60119,2470.413,2022-9-27T05:27:26Z
2022-09-27T03:28:36Z,42.805,6.029,13.3069,4.60099,2470.427,2022-9-27T05:30:30Z
2022-09-27T03:31:39Z,42.805,6.029,13.3073,4.60096,2470.413,2022-9-27T05:33:33Z
2022-09-27T03:34:42Z,42.805,6.029,13.3082,4.60129,2470.46,2022-9-27T05:36:36Z
2022-09-27T03:37:45Z,42.805,6.029,13.3059,4.60107,2470.45,2022-9-27T05:39:39Z
2022-09-27T03:40:49Z,42.805,6.029,13.3056,4.60114,2470.46,2022-9-27T05:42:42Z
2022-09-27T03:43:52Z,42.805,6.029,13.3099,4.60102,2470.46,2022-9-27T05:45:45Z
2022-09-27T03:46:55Z,42.805,6.029,13.3103,4.60099,2470.45,2022-9-27T05:48:48Z
2022-09-27T03:49:58Z,42.805,6.029,13.3101,4.60111,2470.45,2022-9-27T05:51:51Z
2022-09-27T03:53:01Z,42.805,6.029,13.3085,4.60123,2470.483,2022-9-27T05:54:55Z
2022-09-27T03:56:04Z,42.805,6.029,13.3046,4.60099,2470.474,2022-9-27T05:57:58Z
2022-09-27T03:59:07Z,42.805,6.029,13.3068,4.60117,2470.483,2022-9-27T06:01:01Z
2022-09-27T04:02:10Z,42.805,6.029,13.3060,4.60115,2470.46,2022-9-27T06:04:04Z
2022-09-27T04:05:14Z,42.805,6.029,13.3068,4.60130,2470.497,2022-9-27T06:07:07Z
2022-09-27T04:08:17Z,42.805,6.029,13.3059,4.60137,2470.474,2022-9-27T06:10:10Z
2022-09-27T04:11:20Z,42.805,6.029,13.3099,4.60114,2470.497,2022-9-27T06:13:13Z
2022-09-27T04:14:23Z,42.805,6.029,13.3093,4.60097,2470.497,2022-9-27T06:16:16Z
2022-09-27T04:17:26Z,42.805,6.029,13.3067,4.60103,2470.46,2022-9-27T06:19:19Z
2022-09-27T04:20:29Z,42.805,6.029,13.3066,4.60113,2470.474,2022-9-27T06:22:23Z
2022-09-27T04:23:32Z,42.805,6.029,13.3061,4.60100,2470.474,2022-9-27T06:25:26Z
2022-09-27T04:26:35Z,42.805,6.029,13.3101,4.60104,2470.483,2022-9-27T06:28:29Z
2022-09-27T04:29:39Z,42.805,6.029,13.3065,4.60118,2470.46,2022-9-27T06:31:32Z
2022-09-27T04:32:42Z,42.805,6.029,13.3031,4.60104,2470.497,2022-9-27T06:34:35Z
2022-09-27T04:35:45Z,42.805,6.029,13.3029,4.60141,2470.474,2022-9-27T06:37:38Z
2022-09-27T04:38:48Z,42.805,6.029,13.3024,4.60161,2470.497,2022-9-27T06:40:41Z
2022-09-27T04:41:51Z,42.805,6.029,13.3021,4.60167,2470.497,2022-9-27T06:43:44Z
2022-09-27T04:44:54Z,42.805,6.029,13.3005,4.60183,2470.507,2022-9-27T06:46:48Z
2022-09-27T04:47:57Z,42.805,6.029,13.3012,4.60122,2470.474,2022-9-27T06:49:51Z
2022-09-27T04:51:00Z,42.805,6.029,13.3011,4.60101,2470.497,2022-9-27T06:52:54Z
2022-09-27T04:54:03Z,42.805,6.029,13.3005,4.60123,2470.497,2022-9-27T06:55:57Z
2022-09-27T04:57:07Z,42.805,6.029,13.3009,4.60137,2470.483,2022-9-27T06:59:00Z
2022-09-27T05:00:10Z,42.805,6.029,13.3006,4.60092,2470.544,2022-9-27T07:02:03Z
2022-09-27T05:03:13Z,42.805,6.029,13.3011,4.60125,2470.53,2022-9-27T07:05:06Z
2022-09-27T05:06:16Z,42.805,6.029,13.3009,4.60115,2470.544,2022-9-27T07:08:09Z
2022-09-27T05:09:19Z,42.805,6.029,13.3009,4.60135,2470.53,2022-9-27T07:11:13Z
2022-09-27T05:12:22Z,42.805,6.029,13.3007,4.60117,2470.53,2022-9-27T07:14:16Z
2022-09-27T05:15:25Z,42.805,6.029,13.3007,4.60120,2470.53,2022-9-27T07:17:19Z
2022-09-27T05:18:28Z,42.805,6.029,13.3008,4.60146,2470.507,2022-9-27T07:20:22Z
2022-09-27T05:21:32Z,42.805,6.029,13.3010,4.60131,2470.53,2022-9-27T07:23:25Z
2022-09-27T05:24:35Z,42.805,6.029,13.3011,4.60108,2470.53,2022-9-27T07:26:28Z
2022-09-27T05:27:38Z,42.805,6.029,13.3009,4.60117,2470.507,2022-9-27T07:29:31Z
2022-09-27T05:30:41Z,42.805,6.029,13.3011,4.60160,2470.567,2022-9-27T07:32:34Z
2022-09-27T05:33:44Z,42.805,6.029,13.3011,4.60127,2470.53,2022-9-27T07:35:38Z
2022-09-27T05:36:47Z,42.805,6.029,13.3009,4.60097,2470.544,2022-9-27T07:38:41Z
2022-09-27T05:39:50Z,42.805,6.029,13.3006,4.60108,2470.544,2022-9-27T07:41:44Z
2022-09-27T05:42:53Z,42.805,6.029,13.3010,4.60092,2470.53,2022-9-27T07:44:47Z
2022-09-27T05:45:57Z,42.805,6.029,13.3011,4.60094,2470.567,2022-9-27T07:47:50Z
2022-09-27T05:49:00Z,42.805,6.029,13.3006,4.60095,2470.53,2022-9-27T07:50:53Z
2022-09-27T05:52:03Z,42.805,6.029,13.3011,4.60099,2470.553,2022-9-27T07:53:56Z
2022-09-27T05:55:06Z,42.805,6.029,13.3011,4.60135,2470.577,2022-9-27T07:56:59Z
2022-09-27T05:58:09Z,42.805,6.029,13.3009,4.60157,2470.614,2022-9-27T08:00:03Z
2022-09-27T06:01:12Z,42.805,6.029,13.3013,4.60081,2470.577,2022-9-27T08:03:06Z
2022-09-27T06:04:15Z,42.805,6.029,13.3009,4.60123,2470.591,2022-9-27T08:06:09Z
2022-09-27T06:07:18Z,42.805,6.029,13.3011,4.60193,2470.591,2022-9-27T08:09:12Z
2022-09-27T06:10:22Z,42.805,6.029,13.3011,4.60185,2470.577,2022-9-27T08:12:15Z
2022-09-27T06:13:25Z,42.805,6.029,13.3011,4.60108,2470.591,2022-9-27T08:15:18Z
2022-09-27T06:16:28Z,42.805,6.029,13.3034,4.60115,2470.567,2022-9-27T08:18:21Z
2022-09-27T06:19:31Z,42.805,6.029,13.3060,4.60155,2470.614,2022-9-27T08:21:24Z
2022-09-27T06:22:34Z,42.805,6.029,13.3012,4.60183,2470.577,2022-9-27T08:24:27Z
2022-09-27T06:25:37Z,42.805,6.029,13.3018,4.60106,2470.614,2022-9-27T08:27:31Z
2022-09-27T06:28:40Z,42.805,6.029,13.3037,4.60105,2470.567,2022-9-27T08:30:34Z
2022-09-27T06:31:43Z,42.805,6.029,13.3007,4.60140,2470.6,2022-9-27T08:33:37Z
2022-09-27T06:34:46Z,42.805,6.029,13.3009,4.60103,2470.614,2022-9-27T08:36:40Z
2022-09-27T06:37:50Z,42.805,6.029,13.3021,4.60112,2470.6,2022-9-27T08:39:43Z
2022-09-27T06:40:53Z,42.805,6.029,13.3015,4.60135,2470.646,2022-9-27T08:42:46Z
2022-09-27T06:43:56Z,42.805,6.029,13.3007,4.60190,2470.614,2022-9-27T08:45:49Z
2022-09-27T06:46:59Z,42.805,6.029,13.3011,4.60168,2470.614,2022-9-27T08:48:52Z
2022-09-27T06:50:02Z,42.805,6.029,13.3011,4.60133,2470.614,2022-9-27T08:51:56Z
2022-09-27T06:53:05Z,42.805,6.029,13.3011,4.60138,2470.637,2022-9-27T08:54:59Z
2022-09-27T06:56:08Z,42.805,6.029,13.3009,4.60147,2470.614,2022-9-27T08:58:02Z
2022-09-27T06:59:11Z,42.805,6.029,13.3008,4.60129,2470.624,2022-9-27T09:01:05Z
2022-09-27T07:02:15Z,42.805,6.029,13.3008,4.60152,2470.6,2022-9-27T09:04:08Z
2022-09-27T07:05:18Z,42.805,6.029,13.3011,4.60145,2470.624,2022-9-27T09:07:11Z
2022-09-27T07:08:21Z,42.805,6.029,13.3011,4.60152,2470.624,2022-9-27T09:10:14Z
2022-09-27T07:11:24Z,42.805,6.029,13.3012,4.60141,2470.637,2022-9-27T09:13:17Z
2022-09-27T07:14:27Z,42.805,6.029,13.3023,4.60110,2470.646,2022-9-27T09:16:21Z
2022-09-27T07:17:30Z,42.805,6.029,13.3032,4.60125,2470.577,2022-9-27T09:19:24Z
2022-09-27T07:20:33Z,42.805,6.029,13.3046,4.60121,2470.614,2022-9-27T09:22:27Z
2022-09-27T07:23:36Z,42.805,6.029,13.3053,4.60137,2470.637,2022-9-27T09:25:30Z
2022-09-27T07:26:40Z,42.805,6.029,13.3056,4.60109,2470.637,2022-9-27T09:28:33Z
2022-09-27T07:29:43Z,42.805,6.029,13.3063,4.60102,2470.614,2022-9-27T09:31:36Z
2022-09-27T07:32:46Z,42.805,6.029,13.3060,4.60105,2470.661,2022-9-27T09:34:39Z
2022-09-27T07:35:49Z,42.805,6.029,13.3089,4.60104,2470.637,2022-9-27T09:37:42Z
2022-09-27T07:38:52Z,42.805,6.029,13.3088,4.60092,2470.661,2022-9-27T09:40:46Z
2022-09-27T07:41:55Z,42.805,6.029,13.3084,4.60097,2470.614,2022-9-27T09:43:49Z
2022-09-27T07:44:58Z,42.805,6.029,13.3083,4.60108,2470.6,2022-9-27T09:46:52Z
2022-09-27T07:48:01Z,42.805,6.029,13.3096,4.60131,2470.637,2022-9-27T09:49:55Z
2022-09-27T07:51:05Z,42.805,6.029,13.3097,4.60120,2470.624,2022-9-27T09:52:58Z
2022-09-27T07:54:08Z,42.805,6.029,13.3093,4.60106,2470.614,2022-9-27T09:56:01Z
2022-09-27T07:57:11Z,42.805,6.029,13.3096,4.60147,2470.614,2022-9-27T09:59:04Z
2022-09-27T08:00:14Z,42.805,6.029,13.3095,4.60159,2470.6,2022-9-27T10:02:07Z
2022-09-27T08:03:17Z,42.805,6.029,13.3073,4.60119,2470.6,2022-9-27T10:05:11Z
2022-09-27T08:06:20Z,42.805,6.029,13.3073,4.60100,2470.637,2022-9-27T10:08:14Z
2022-09-27T08:09:23Z,42.805,6.029,13.3078,4.60099,2470.6,2022-9-27T10:11:17Z
2022-09-27T08:12:26Z,42.805,6.029,13.3078,4.60102,2470.624,2022-9-27T10:14:20Z
2022-09-27T08:15:30Z,42.805,6.029,13.3077,4.60099,2470.646,2022-9-27T10:17:23Z
2022-09-27T08:18:33Z,42.805,6.029,13.3089,4.60087,2470.624,2022-9-27T10:20:26Z
2022-09-27T08:21:36Z,42.805,6.029,13.3078,4.60081,2470.553,2022-9-27T10:23:29Z
2022-09-27T08:24:39Z,42.805,6.029,13.3077,4.60087,2470.624,2022-9-27T10:26:32Z
2022-09-27T08:27:42Z,42.805,6.029,13.3073,4.60079,2470.637,2022-9-27T10:29:36Z
2022-09-27T08:30:45Z,42.805,6.029,13.3061,4.60067,2470.637,2022-9-27T10:32:39Z
2022-09-27T08:33:48Z,42.805,6.029,13.3056,4.60100,2470.614,2022-9-27T10:35:42Z
2022-09-27T08:36:51Z,42.805,6.029,13.3054,4.60093,2470.661,2022-9-27T10:38:45Z
2022-09-27T08:39:55Z,42.805,6.029,13.3051,4.60082,2470.637,2022-9-27T10:41:48Z
2022-09-27T08:42:58Z,42.805,6.029,13.3057,4.60106,2470.591,2022-9-27T10:44:51Z
2022-09-27T08:46:01Z,42.805,6.029,13.3055,4.60100,2470.624,2022-9-27T10:47:54Z
2022-09-27T08:49:04Z,42.805,6.029,13.3048,4.60081,2470.624,2022-9-27T10:50:57Z
2022-09-27T08:52:07Z,42.805,6.029,13.3035,4.60081,2470.614,2022-9-27T10:54:01Z
2022-09-27T08:55:10Z,42.805,6.029,13.3049,4.60086,2470.637,2022-9-27T10:57:04Z
2022-09-27T08:58:13Z,42.805,6.029,13.3047,4.60075,2470.6,2022-9-27T11:00:07Z
2022-09-27T09:01:16Z,42.805,6.029,13.3041,4.60084,2470.6,2022-9-27T11:03:10Z
2022-09-27T09:04:20Z,42.805,6.029,13.3048,4.60079,2470.614,2022-9-27T11:06:13Z
2022-09-27T09:07:23Z,42.805,6.029,13.3056,4.60074,2470.6,2022-9-27T11:09:16Z
2022-09-27T09:10:26Z,42.805,6.029,13.3047,4.60081,2470.637,2022-9-27T11:12:19Z
2022-09-27T09:13:29Z,42.805,6.029,13.3057,4.60070,2470.614,2022-9-27T11:15:22Z
2022-09-27T09:16:32Z,42.805,6.029,13.3056,4.60106,2470.6,2022-9-27T11:18:26Z
2022-09-27T09:19:35Z,42.805,6.029,13.3051,4.60104,2470.591,2022-9-27T11:21:29Z
2022-09-27T09:22:38Z,42.805,6.029,13.3037,4.60099,2470.591,2022-9-27T11:24:32Z
2022-09-27T09:25:41Z,42.805,6.029,13.3031,4.60093,2470.591,2022-9-27T11:27:35Z
2022-09-27T09:28:45Z,42.805,6.029,13.3035,4.60107,2470.6,2022-9-27T11:30:38Z
2022-09-27T09:31:48Z,42.805,6.029,13.3048,4.60108,2470.614,2022-9-27T11:33:41Z
2022-09-27T09:34:51Z,42.805,6.029,13.3053,4.60104,2470.614,2022-9-27T11:36:44Z
2022-09-27T09:37:54Z,42.805,6.029,13.3048,4.60105,2470.624,2022-9-27T11:39:47Z
2022-09-27T09:40:57Z,42.805,6.029,13.3056,4.60109,2470.577,2022-9-27T11:42:51Z
2022-09-27T09:44:00Z,42.805,6.029,13.3050,4.60100,2470.614,2022-9-27T11:45:54Z
2022-09-27T09:47:03Z,42.805,6.029,13.3056,4.60135,2470.591,2022-9-27T11:48:57Z
2022-09-27T09:50:06Z,42.805,6.029,13.3059,4.60104,2470.577,2022-9-27T11:52:00Z
2022-09-27T09:53:10Z,42.805,6.029,13.3082,4.60135,2470.577,2022-9-27T11:55:03Z
2022-09-27T09:56:13Z,42.805,6.029,13.3073,4.60115,2470.553,2022-9-27T11:58:06Z
2022-09-27T09:59:16Z,42.805,6.029,13.3075,4.60105,2470.567,2022-9-27T12:01:09Z
2022-09-27T10:02:19Z,42.805,6.029,13.3076,4.60084,2470.577,2022-9-27T12:04:12Z
2022-09-27T10:05:22Z,42.805,6.029,13.3067,4.60104,2470.6,2022-9-27T12:07:16Z
2022-09-27T10:08:25Z,42.805,6.029,13.3064,4.60094,2470.553,2022-9-27T12:10:19Z
2022-09-27T10:11:28Z,42.805,6.029,13.3069,4.60113,2470.567,2022-9-27T12:13:22Z
2022-09-27T10:14:31Z,42.805,6.029,13.3068,4.60121,2470.544,2022-9-27T12:16:25Z
2022-09-27T10:17:35Z,42.805,6.029,13.3084,4.60081,2470.591,2022-9-27T12:19:28Z
2022-09-27T10:20:38Z,42.805,6.029,13.3063,4.60101,2470.53,2022-9-27T12:22:31Z
2022-09-27T10:23:41Z,42.805,6.029,13.3053,4.60152,2470.553,2022-9-27T12:25:34Z
2022-09-27T10:26:44Z,42.805,6.029,13.3060,4.60107,2470.507,2022-9-27T12:28:37Z
2022-09-27T10:29:47Z,42.805,6.029,13.3056,4.60109,2470.567,2022-9-27T12:31:41Z
2022-09-27T10:32:50Z,42.805,6.029,13.3034,4.60125,2470.553,2022-9-27T12:34:44Z
2022-09-27T10:35:53Z,42.805,6.029,13.3065,4.60111,2470.591,2022-9-27T12:37:47Z
2022-09-27T10:38:57Z,42.805,6.029,13.3078,4.60132,2470.553,2022-9-27T12:40:50Z
2022-09-27T10:42:00Z,42.805,6.029,13.3078,4.60105,2470.553,2022-9-27T12:43:53Z
2022-09-27T10:45:03Z,42.805,6.029,13.3084,4.60118,2470.591,2022-9-27T12:46:56Z
2022-09-27T10:48:06Z,42.805,6.029,13.3080,4.60114,2470.53,2022-9-27T12:49:59Z
2022-09-27T10:51:09Z,42.805,6.029,13.3062,4.60137,2470.567,2022-9-27T12:53:02Z
2022-09-27T10:54:12Z,42.805,6.029,13.3064,4.60093,2470.544,2022-9-27T12:56:06Z
2022-09-27T10:57:15Z,42.805,6.029,13.3061,4.60125,2470.544,2022-9-27T12:59:09Z
2022-09-27T11:00:18Z,42.805,6.029,13.3058,4.60109,2470.53,2022-9-27T13:02:12Z
2022-09-27T11:03:22Z,42.805,6.029,13.3056,4.60112,2470.544,2022-9-27T13:05:15Z
2022-09-27T11:06:25Z,42.805,6.029,13.3066,4.60137,2470.507,2022-9-27T13:08:18Z
2022-09-27T11:09:28Z,42.805,6.029,13.3038,4.60115,2470.53,2022-9-27T13:11:21Z
2022-09-27T11:12:31Z,42.805,6.029,13.3063,4.60128,2470.52,2022-9-27T13:14:24Z
2022-09-27T11:15:34Z,42.805,6.029,13.3113,4.60090,2470.52,2022-9-27T13:17:28Z
2022-09-27T11:18:37Z,42.805,6.029,13.3089,4.60108,2470.497,2022-9-27T13:20:31Z
2022-09-27T11:21:40Z,42.805,6.029,13.3067,4.60096,2470.52,2022-9-27T13:23:34Z
2022-09-27T11:24:43Z,42.805,6.029,13.3058,4.60135,2470.497,2022-9-27T13:26:37Z
2022-09-27T11:27:47Z,42.805,6.029,13.3046,4.60121,2470.52,2022-9-27T13:29:40Z
2022-09-27T11:30:50Z,42.805,6.029,13.3063,4.60077,2470.497,2022-9-27T13:32:43Z
2022-09-27T11:33:53Z,42.805,6.029,13.3066,4.60074,2470.53,2022-9-27T13:35:46Z
2022-09-27T11:36:56Z,42.805,6.029,13.3061,4.60099,2470.52,2022-9-27T13:38:49Z
2022-09-27T11:39:59Z,42.805,6.029,13.3043,4.60080,2470.53,2022-9-27T13:41:53Z
2022-09-27T11:43:02Z,42.805,6.029,13.3041,4.60089,2470.52,2022-9-27T13:44:56Z
2022-09-27T11:46:05Z,42.805,6.029,13.3063,4.60079,2470.483,2022-9-27T13:47:59Z
2022-09-27T11:49:08Z,42.805,6.029,13.3067,4.60102,2470.507,2022-9-27T13:51:02Z
2022-09-27T11:52:12Z,42.805,6.029,13.3063,4.60094,2470.52,2022-9-27T13:54:05Z
2022-09-27T11:55:15Z,42.805,6.029,13.3051,4.60096,2470.507,2022-9-27T13:57:08Z
2022-09-27T11:58:18Z,42.805,6.029,13.3061,4.60098,2470.53,2022-9-27T14:00:11Z
2022-09-27T12:01:21Z,42.805,6.029,13.3076,4.60092,2470.474,2022-9-27T14:03:14Z
2022-09-27T12:04:24Z,42.805,6.029,13.3066,4.60085,2470.507,2022-9-27T14:06:18Z
2022-09-27T12:07:27Z,42.805,6.029,13.3066,4.60087,2470.46,2022-9-27T14:09:21Z
2022-09-27T12:10:30Z,42.805,6.029,13.3048,4.60084,2470.497,2022-9-27T14:12:24Z
2022-09-27T12:13:33Z,42.805,6.029,13.3050,4.60085,2470.46,2022-9-27T14:15:27Z
2022-09-27T12:16:37Z,42.805,6.029,13.3070,4.60086,2470.483,2022-9-27T14:18:30Z
2022-09-27T12:19:40Z,42.805,6.029,13.3067,4.60083,2470.46,2022-9-27T14:21:33Z
2022-09-27T12:22:43Z,42.805,6.029,13.3057,4.60101,2470.483,2022-9-27T14:24:36Z
2022-09-27T12:25:46Z,42.805,6.029,13.3054,4.60099,2470.474,2022-9-27T14:27:39Z
2022-09-27T12:28:49Z,42.805,6.029,13.3064,4.60087,2470.483,2022-9-27T14:30:43Z
2022-09-27T12:31:52Z,42.805,6.029,13.3063,4.60081,2470.474,2022-9-27T14:33:46Z
2022-09-27T12:34:55Z,42.805,6.029,13.3059,4.60087,2470.497,2022-9-27T14:36:49Z
2022-09-27T12:37:58Z,42.805,6.029,13.3066,4.60092,2470.45,2022-9-27T14:39:52Z
2022-09-27T12:41:02Z,42.805,6.029,13.3065,4.60093,2470.437,2022-9-27T14:42:55Z
2022-09-27T12:44:05Z,42.805,6.029,13.3067,4.60090,2470.45,2022-9-27T14:45:58Z
2022-09-27T12:47:08Z,42.805,6.029,13.3058,4.60068,2470.474,2022-9-27T14:49:01Z
2022-09-27T12:50:11Z,42.805,6.029,13.3040,4.60095,2470.437,2022-9-27T14:52:04Z
2022-09-27T12:53:14Z,42.805,6.029,13.3056,4.60077,2470.427,2022-9-27T14:55:08Z
2022-09-27T12:56:17Z,42.805,6.029,13.3052,4.60074,2470.474,2022-9-27T14:58:11Z
2022-09-27T12:59:20Z,42.805,6.029,13.3052,4.60086,2470.437,2022-9-27T15:01:14Z
2022-09-27T13:02:23Z,42.805,6.029,13.3058,4.60088,2470.46,2022-9-27T15:04:17Z
2022-09-27T13:05:27Z,42.805,6.029,13.3056,4.60092,2470.46,2022-9-27T15:07:20Z
2022-09-27T13:08:30Z,42.805,6.029,13.3096,4.60095,2470.437,2022-9-27T15:10:23Z
2022-09-27T13:11:33Z,42.805,6.029,13.3063,4.60089,2470.45,2022-9-27T15:13:26Z
2022-09-27T13:14:36Z,42.805,6.029,13.3067,4.60085,2470.437,2022-9-27T15:16:29Z
2022-09-27T13:17:39Z,42.805,6.029,13.3060,4.60102,2470.483,2022-9-27T15:19:33Z
2022-09-27T13:20:42Z,42.805,6.029,13.3053,4.60071,2470.437,2022-9-27T15:22:36Z
2022-09-27T13:23:45Z,42.805,6.029,13.3048,4.60079,2470.46,2022-9-27T15:25:39Z
2022-09-27T13:26:48Z,42.805,6.029,13.3063,4.60090,2470.46,2022-9-27T15:28:42Z
2022-09-27T13:29:52Z,42.805,6.029,13.3056,4.60078,2470.45,2022-9-27T15:31:45Z
2022-09-27T13:32:55Z,42.805,6.029,13.3046,4.60070,2470.45,2022-9-27T15:34:48Z
2022-09-27T13:35:58Z,42.805,6.029,13.3056,4.60080,2470.45,2022-9-27T15:37:51Z
2022-09-27T13:39:01Z,42.805,6.029,13.3050,4.60086,2470.423,2022-9-27T15:40:54Z
2022-09-27T13:42:04Z,42.805,6.029,13.3067,4.60077,2470.45,2022-9-27T15:43:58Z
2022-09-27T13:45:07Z,42.805,6.029,13.3056,4.60079,2470.437,2022-9-27T15:47:01Z
2022-09-27T13:48:10Z,42.805,6.029,13.3056,4.60080,2470.413,2022-9-27T15:50:04Z
2022-09-27T13:51:13Z,42.805,6.029,13.3070,4.60084,2470.413,2022-9-27T15:53:07Z
2022-09-27T13:54:17Z,42.805,6.029,13.3054,4.60084,2470.427,2022-9-27T15:56:10Z
2022-09-27T13:57:20Z,42.805,6.029,13.3054,4.60083,2470.413,2022-9-27T15:59:13Z
2022-09-27T14:00:23Z,42.805,6.029,13.3069,4.60091,2470.46,2022-9-27T16:02:16Z
2022-09-27T14:03:26Z,42.805,6.029,13.3061,4.60084,2470.413,2022-9-27T16:05:19Z
2022-09-27T14:06:29Z,42.805,6.029,13.3062,4.60081,2470.427,2022-9-27T16:08:23Z
2022-09-27T14:09:32Z,42.805,6.029,13.3058,4.60087,2470.427,2022-9-27T16:11:26Z
2022-09-27T14:12:35Z,42.805,6.029,13.3051,4.60084,2470.46,2022-9-27T16:14:29Z
2022-09-27T14:15:38Z,42.805,6.029,13.3046,4.60092,2470.45,2022-9-27T16:17:32Z
2022-09-27T14:18:42Z,42.805,6.029,13.3067,4.60084,2470.45,2022-9-27T16:20:35Z
2022-09-27T14:21:45Z,42.805,6.029,13.3056,4.60077,2470.46,2022-9-27T16:23:38Z
2022-09-27T14:24:48Z,42.805,6.029,13.3056,4.60085,2470.474,2022-9-27T16:26:41Z
2022-09-27T14:27:51Z,42.805,6.029,13.3060,4.60095,2470.46,2022-9-27T16:29:44Z
2022-09-27T14:30:54Z,42.805,6.029,13.3071,4.60087,2470.437,2022-9-27T16:32:48Z
2022-09-27T14:33:57Z,42.805,6.029,13.3065,4.60081,2470.483,2022-9-27T16:35:51Z
2022-09-27T14:37:00Z,42.805,6.029,13.3036,4.60082,2470.437,2022-9-27T16:38:54Z
2022-09-27T14:40:04Z,42.805,6.029,13.3051,4.60081,2470.413,2022-9-27T16:41:57Z
2022-09-27T14:43:07Z,42.805,6.029,13.3049,4.60078,2470.46,2022-9-27T16:45:00Z
2022-09-27T14:46:10Z,42.805,6.029,13.3045,4.60087,2470.45,2022-9-27T16:48:03Z
2022-09-27T14:49:13Z,42.805,6.029,13.3054,4.60077,2470.437,2022-9-27T16:51:06Z
2022-09-27T14:52:16Z,42.805,6.029,13.3047,4.60073,2470.437,2022-9-27T16:54:10Z
2022-09-27T14:55:19Z,42.805,6.029,13.3056,4.60087,2470.437,2022-9-27T16:57:13Z
2022-09-27T14:58:22Z,42.805,6.029,13.3055,4.60087,2470.437,2022-9-27T17:00:16Z
2022-09-27T15:01:25Z,42.805,6.029,13.3045,4.60076,2470.437,2022-9-27T17:03:19Z
2022-09-27T15:04:28Z,42.805,6.029,13.3053,4.60086,2470.437,2022-9-27T17:06:22Z
2022-09-27T15:07:32Z,42.805,6.029,13.3046,4.60085,2470.46,2022-9-27T17:09:25Z
2022-09-27T15:10:35Z,42.805,6.029,13.3056,4.60079,2470.45,2022-9-27T17:12:28Z
2022-09-27T15:13:38Z,42.805,6.029,13.3053,4.60096,2470.45,2022-9-27T17:15:31Z